SES-10                  
1 42432U 17017A   19260.10870868 -.00000278  00000-0  00000+0 0  9994
2 42432   0.0164 177.7658 0003006   7.8751 142.3531  1.00268199  9033
FALCON 9 R/B            
1 42433U 17017B   19258.28694272  .00000364  00000-0  15286-3 0  9995
2 42433  26.1834 338.9742 7083199  93.4034 342.4140  2.53153955 22402